PLATFORM,DATE (YYYY/MM/DD HH:MI:SS),LATITUDE (degree_north),LONGITUDE (degree_east),DEPH LEVEL1(meter),TEMP LEVEL1(degree_Celsius),DEPH LEVEL2(meter),NSCT LEVEL2(meter/second),EWCT LEVEL2(meter/second),QC,SVP_RCBN_Number,SVP_GNRL_ImmPercent,SVP_GNRL_BattVolt
6101665,2017/06/01 18:00:12,35.9459,20.0741,0.5,21.8,,,,011101999,1,25,10.1
6101665,2017/06/01 18:30:40,35.9441,20.0714,0.5,21.72,50,-0.109492,-0.132964,011101000,1,25,10.1
6101665,2017/06/01 19:00:12,35.9417,20.0684,0.5,21.72,50,-0.150603,-0.15241,011101000,1,25,10.1
6101665,2017/06/01 19:30:12,35.9397,20.0654,0.5,21.64,50,-0.12355,-0.150044,011101000,1,25,10.1
6101665,2017/06/01 20:00:05,35.9374,20.0625,0.5,21.56,50,-0.142637,-0.145612,011101000,1,25,10.1
6101665,2017/06/01 20:30:40,35.9348,20.0598,0.5,21.56,50,-0.157551,-0.132471,011101000,1,25,10.1
6101665,2017/06/01 21:00:12,35.9320,20.0568,0.5,21.48,50,-0.175703,-0.152429,011101000,3,23,10.1
6101665,2017/06/01 21:30:12,35.9295,20.0533,0.5,21.48,50,-0.154437,-0.175073,011101000,3,23,10.1
6101665,2017/06/01 22:00:12,35.9272,20.0495,0.5,21.48,50,-0.142082,-0.190085,011101000,4,23,10.1
6101665,2017/06/01 22:30:12,35.9249,20.0452,0.5,21.48,50,-0.142082,-0.215102,011101000,4,23,10.1
6101665,2017/06/01 23:00:40,35.9226,20.0409,0.5,21.48,50,-0.139906,-0.211814,011101000,3,23,10.1
6101665,2017/06/01 23:30:12,35.9207,20.0357,0.5,21.48,50,-0.119227,-0.264249,011101000,3,23,10.1
6101665,2017/06/02 00:00:12,35.9194,20.0301,0.5,21.48,50,-0.080307,-0.280155,011101000,4,23,10.1
6101665,2017/06/02 00:30:13,35.9183,20.0243,0.5,21.48,50,-0.067915,-0.290003,011101000,4,23,10.1
6101665,2017/06/02 01:00:12,35.9175,20.0188,0.5,21.48,50,-0.049447,-0.275312,011101000,4,19,10.1
6101665,2017/06/02 01:30:12,35.9165,20.0137,0.5,21.48,50,-0.061775,-0.255151,011101000,4,19,10.1
6101665,2017/06/02 02:00:40,35.9156,20.0088,0.5,21.48,50,-0.054746,-0.241393,011101000,5,19,10.1
6101665,2017/06/02 02:30:12,35.9145,20.0047,0.5,21.48,50,-0.069026,-0.208367,011101000,5,19,9.5
6101665,2017/06/02 03:00:11,35.9137,19.9999,0.5,21.4,50,-0.049447,-0.240284,011101000,4,19,9.5
6101665,2017/06/02 03:31:04,35.9126,19.9952,0.5,21.4,50,-0.066009,-0.228424,011101000,4,19,10.1
6101665,2017/06/02 04:00:12,35.9117,19.9905,0.5,21.4,50,-0.057251,-0.242149,011101000,4,19,10.1
6101665,2017/06/02 04:30:12,35.9109,19.9859,0.5,21.32,50,-0.04942,-0.230152,011101000,4,19,10.1
6101665,2017/06/02 05:00:12,35.9100,19.9812,0.5,21.4,50,-0.055597,-0.235158,011101000,5,22,10.1
6101665,2017/06/02 05:30:12,35.9101,19.9763,0.5,21.4,50,0.006177,-0.245166,011101000,1,22,10.1
6101665,2017/06/02 06:00:12,35.9105,19.9720,0.5,21.4,50,0.02471,-0.215145,014401000,1,22,10.1
6101665,2017/06/02 06:30:12,35.9111,19.9683,0.5,21.48,50,0.037065,-0.185124,011101000,1,22,10.1
6101665,2017/06/02 07:00:58,35.9112,19.9651,0.5,21.48,50,0.006024,-0.156117,011101000,1,22,10.1
6101665,2017/06/02 07:30:12,35.9113,19.9626,0.5,21.48,50,0.00634,-0.128363,011101000,1,22,10.1
6101665,2017/06/02 08:00:12,35.9110,19.9603,0.5,21.56,50,-0.018532,-0.115076,011101000,1,22,10.1
6101665,2017/06/02 08:30:12,35.9106,19.9582,0.5,21.64,50,-0.02471,-0.10507,011101000,1,22,10.1
6101665,2017/06/02 09:00:12,35.9107,19.9566,0.5,21.72,50,0.006177,-0.080054,014401000,1,19,10.1
6101665,2017/06/02 09:30:12,35.9102,19.9558,0.5,21.88,50,-0.030887,-0.040027,011101000,1,19,10.1
6101665,2017/06/02 10:00:13,35.9095,19.9554,0.5,21.96,50,-0.043218,-0.020003,011101000,4,19,10.1
6101665,2017/06/02 10:30:40,35.9081,19.9553,0.5,22.04,50,-0.085207,-0.00493,011101000,4,19,10.1
6101665,2017/06/02 11:00:12,35.9064,19.9556,0.5,22.2,50,-0.106677,0.015248,011101000,4,19,10.1
6101665,2017/06/02 11:30:12,35.9045,19.9565,0.5,22.12,50,-0.117372,0.045033,011101000,4,19,10.1
6101665,2017/06/02 12:00:12,35.9018,19.9559,0.5,22.2,50,-0.166792,-0.030023,014401000,4,19,10.1
6101665,2017/06/02 12:30:12,35.8991,19.9550,0.5,22.28,50,-0.166792,-0.045036,011101000,6,19,10.1
6101665,2017/06/02 13:00:12,35.8958,19.9544,0.5,22.36,50,-0.203857,-0.030025,011101000,6,19,10.1
6101665,2017/06/02 13:30:40,35.8919,19.9533,0.5,22.44,50,-0.237232,-0.054205,011101000,4,19,9.6
6101665,2017/06/02 14:00:12,35.8880,19.9526,0.5,22.44,50,-0.244729,-0.035586,011101000,3,19,9.6
6101665,2017/06/02 14:30:12,35.8837,19.9516,0.5,22.52,50,-0.265632,-0.050049,011101000,3,19,10.1
6101665,2017/06/02 15:00:12,35.8795,19.9506,0.5,22.44,50,-0.259455,-0.050052,014401000,4,19,10.1
6101665,2017/06/02 15:30:12,35.8751,19.9485,0.5,22.44,50,-0.27181,-0.105115,011101000,4,19,10.1
6101665,2017/06/02 16:00:12,35.8709,19.9458,0.5,22.44,50,-0.259455,-0.135155,011101000,3,19,10.1
6101665,2017/06/02 16:30:40,35.8668,19.9426,0.5,22.44,50,-0.249398,-0.157738,011101000,5,19,10.1
6101665,2017/06/02 17:00:12,35.8630,19.9397,0.5,22.36,50,-0.238454,-0.147475,011101000,3,15,10.1
6101665,2017/06/02 17:30:12,35.8592,19.9365,0.5,22.28,50,-0.234745,-0.160208,011101000,3,15,10.1
6101665,2017/06/02 18:00:12,35.8558,19.9334,0.5,22.28,50,-0.210035,-0.155208,014401000,1,15,10.1
6101665,2017/06/02 18:30:12,35.8527,19.9296,0.5,22.2,50,-0.191502,-0.190263,011101000,1,15,10.1
6101665,2017/06/02 19:00:03,35.8497,19.9252,0.5,22.2,50,-0.186256,-0.22142,011101000,1,15,10.1
6101665,2017/06/02 19:30:11,35.8471,19.9491,0.5,22.2,50,-0.159904,1.19145,014401000,1,15,10.1
6101665,2017/06/02 20:00:41,35.8447,19.9205,0.5,22.12,50,-0.145829,-1.40865,014401000,1,15,10.1
6101665,2017/06/02 20:30:03,35.8427,19.9175,0.5,22.12,50,-0.126214,-0.153467,011101000,1,15,10.1
6101665,2017/06/02 21:00:11,35.8408,19.9149,0.5,22.04,50,-0.116853,-0.129624,014401000,1,22,10.1
6101665,2017/06/02 21:30:11,35.8389,19.9122,0.5,22.04,50,-0.117372,-0.135211,011101000,3,22,10.1
6101665,2017/06/02 22:00:40,35.8371,19.9100,0.5,21.96,50,-0.109432,-0.108428,011101000,3,22,10.1
6101665,2017/06/02 22:30:12,35.8352,19.9083,0.5,21.96,50,-0.119227,-0.086482,011101000,1,22,10.1
6101665,2017/06/02 23:00:11,35.8332,19.9071,0.5,21.96,50,-0.123619,-0.060132,011101000,1,22,10.1
6101665,2017/06/02 23:30:11,35.8315,19.9057,0.5,21.88,50,-0.105017,-0.070116,011101000,3,22,10.1
6101665,2017/06/03 00:00:12,35.8301,19.9045,0.5,21.88,50,-0.086437,-0.060067,014401000,3,22,10.1
6101665,2017/06/03 00:30:40,35.8286,19.9040,0.5,21.88,50,-0.091243,-0.024659,011101000,5,22,9.5
6101665,2017/06/03 01:00:11,35.8266,19.9041,0.5,21.88,50,-0.125573,0.005091,011101000,5,26,9.5
6101665,2017/06/03 01:30:12,35.8245,19.9040,0.5,21.8,50,-0.129655,-0.005006,011101000,4,26,10.1
6101665,2017/06/03 02:00:40,35.8223,19.9045,0.5,21.8,50,-0.133823,0.024661,011101000,3,26,10.1
6101665,2017/06/03 02:30:11,35.8196,19.9061,0.5,21.72,50,-0.169524,0.081457,011101000,3,26,10.1
6101665,2017/06/03 03:00:40,35.8171,19.9056,0.5,21.72,50,-0.151989,-0.024649,014401000,1,26,10.1
6101665,2017/06/03 03:30:12,35.8136,19.9060,0.5,21.72,50,-0.219629,0.020354,011101000,1,26,10.1
6101665,2017/06/03 04:00:12,35.8100,19.9064,0.5,21.64,50,-0.22239,0.020038,011101000,3,26,10.1
6101665,2017/06/03 04:30:12,35.8064,19.9071,0.5,21.64,50,-0.22239,0.035069,011101000,3,26,10.1
6101665,2017/06/03 05:00:12,35.8030,19.9079,0.5,21.64,50,-0.210035,0.04008,011101000,3,23,10.1
6101665,2017/06/03 05:30:12,35.7995,19.9088,0.5,21.64,50,-0.216212,0.045092,011101000,1,23,10.1
6101665,2017/06/03 06:00:12,35.7962,19.9104,0.5,21.64,50,-0.203857,0.080168,014401000,1,23,10.1
6101665,2017/06/03 06:30:40,35.7930,19.9115,0.5,21.64,50,-0.194652,0.054273,011101000,3,23,10.1
6101665,2017/06/03 07:00:12,35.7899,19.9138,0.5,21.64,50,-0.194528,0.117071,011101000,3,23,10.1
6101665,2017/06/03 07:30:12,35.7867,19.9158,0.5,21.64,50,-0.19768,0.100222,011101000,3,23,10.1
6101665,2017/06/03 08:00:12,35.7833,19.9171,0.5,21.8,50,-0.210035,0.065147,011101000,3,23,10.1
6101665,2017/06/03 08:30:40,35.7799,19.9181,0.5,21.8,50,-0.206818,0.049347,011101000,3,23,10.1
6101665,2017/06/03 09:00:12,35.7763,19.9192,0.5,21.88,50,-0.225904,0.056,014401000,1,20,10.1
6101665,2017/06/03 09:30:12,35.7729,19.9202,0.5,21.96,50,-0.210035,0.050119,011101000,1,20,10.1
6101665,2017/06/03 10:00:13,35.7692,19.9214,0.5,22.04,50,-0.22844,0.060113,011101000,4,20,10.1
6101665,2017/06/03 10:30:40,35.7654,19.9229,0.5,22.12,50,-0.231276,0.074075,011101000,4,20,10.1
6101665,2017/06/03 11:00:12,35.7618,19.9239,0.5,22.28,50,-0.225904,0.050918,011101000,3,20,10.1
6101665,2017/06/03 11:30:13,35.7582,19.9249,0.5,22.36,50,-0.222266,0.050101,011101000,1,20,9.5
6101665,2017/06/03 12:00:12,35.7546,19.9252,0.5,22.52,50,-0.222513,0.015048,014401000,4,20,9.5
6101665,2017/06/03 12:30:12,35.7512,19.9250,0.5,22.6,50,-0.210035,-0.010027,011101000,4,20,10.1
6101665,2017/06/03 13:00:17,35.7482,19.9253,0.5,22.52,50,-0.184812,0.014999,011101000,5,28,10.1
6101665,2017/06/03 13:30:40,35.7455,19.9260,0.5,22.52,50,-0.164688,0.034653,011101000,4,28,10.1
6101665,2017/06/03 14:00:12,35.7435,19.9269,0.5,22.52,50,-0.125502,0.045838,011101000,4,28,10.1
6101665,2017/06/03 14:30:13,35.7417,19.9278,0.5,22.52,50,-0.111133,0.045101,011101000,3,28,10.1
6101665,2017/06/03 15:00:12,35.7400,19.9294,0.5,22.52,50,-0.105076,0.08027,014401000,3,28,10.1
6101665,2017/06/03 15:30:06,35.7380,19.9314,0.5,22.52,50,-0.123963,0.100619,011101000,4,28,10.1
6101665,2017/06/03 16:00:03,35.7355,19.9339,0.5,22.52,50,-0.154695,0.125568,011101000,4,28,10.1
6101665,2017/06/03 16:30:40,35.7326,19.9362,0.5,22.44,50,-0.175539,0.11301,011101000,3,28,10.1
6101665,2017/06/03 17:00:12,35.7302,19.9378,0.5,22.44,50,-0.150603,0.081502,011101000,3,22,10.1
6101665,2017/06/03 17:30:12,35.7276,19.9395,0.5,22.44,50,-0.160615,0.085252,011101000,1,22,10.1
6101665,2017/06/03 18:00:12,35.7250,19.9420,0.5,22.44,50,-0.160615,0.125375,014401000,3,22,10.1
6101665,2017/06/03 18:30:12,35.7230,19.9439,0.5,22.44,50,-0.12355,0.095288,011101000,1,22,10.1
6101665,2017/06/03 19:00:13,35.7207,19.9464,0.5,22.36,50,-0.142004,0.125312,011101000,1,22,10.1
6101665,2017/06/03 19:30:25,35.7189,19.9493,0.5,22.36,50,-0.110459,0.144483,011101000,1,22,10.1
6101665,2017/06/03 20:00:40,35.7172,19.9521,0.5,22.28,50,-0.10415,0.139274,011101000,1,22,10.1
6101665,2017/06/03 20:30:12,35.7155,19.9550,0.5,22.28,50,-0.106677,0.147751,011101000,1,22,10.1
6101665,2017/06/03 21:00:12,35.7136,19.9581,0.5,22.2,50,-0.117372,0.155488,014401000,1,23,10.1
6101665,2017/06/03 21:30:12,35.7118,6.8537,0.5,22.2,,,,014401999,1,23,10.1
6101665,2017/06/03 22:00:40,35.7099,19.9641,0.5,22.2,,,,014401999,1,23,10.1
6101665,2017/06/03 22:30:12,35.7080,19.9676,0.5,22.2,50,-0.119227,0.178337,011101000,3,23,9.5
6101665,2017/06/03 23:00:12,35.7057,19.9707,0.5,22.12,50,-0.142082,0.155503,011101000,4,23,9.5
6101665,2017/06/03 23:30:12,35.7030,19.9743,0.5,22.12,50,-0.166792,0.180589,011101000,4,23,10.1
6101665,2017/06/04 00:00:06,35.7006,19.9766,0.5,22.12,50,-0.148756,0.115766,014401000,4,23,10.1
6101665,2017/06/04 00:30:40,35.6981,19.9790,0.5,22.04,50,-0.151574,0.118168,011101000,3,23,10.1
6101665,2017/06/04 01:00:12,35.6955,19.9819,0.5,22.04,50,-0.163153,0.147787,011101000,3,19,10.1
6101665,2017/06/04 01:30:12,35.6930,19.9848,0.5,21.96,50,-0.154437,0.145493,011101000,3,19,10.1
6101665,2017/06/04 02:00:03,35.6904,19.9873,0.5,21.96,50,-0.161422,0.126059,011101000,4,19,10.1
6101665,2017/06/04 02:30:07,35.6877,19.9913,0.5,21.96,50,-0.166423,0.200248,011101000,4,19,10.1
6101665,2017/06/04 03:00:35,35.6860,19.9921,0.5,21.88,50,-0.103409,0.039525,014401000,4,19,10.1
6101665,2017/06/04 03:30:12,35.6837,19.9942,0.5,21.88,50,-0.143921,0.106733,011101000,1,19,10.1
6101665,2017/06/04 04:00:12,35.6816,19.9960,0.5,21.88,50,-0.129727,0.090319,011101000,1,19,10.1
6101665,2017/06/04 04:30:40,35.6799,19.9985,0.5,21.88,50,-0.103409,0.123525,011101000,3,19,10.1
6101665,2017/06/04 05:00:03,35.6781,20.0000,0.5,21.88,50,-0.113529,0.076849,011101000,4,23,10.1
6101665,2017/06/04 05:30:12,35.6768,20.0021,0.5,21.96,50,-0.079908,0.104855,011101000,1,23,10.1
6101665,2017/06/04 06:00:12,35.6758,20.0044,0.5,21.96,50,-0.061775,0.115417,014401000,1,23,10.1
6101665,2017/06/04 06:30:40,35.6754,20.0054,0.5,21.96,50,-0.024331,0.049413,011101000,1,23,10.1
6101665,2017/06/04 07:00:12,35.6751,20.0072,0.5,22.04,50,-0.018825,0.091755,011101000,1,23,10.1
6101665,2017/06/04 07:30:12,35.6745,20.0090,0.5,22.12,50,-0.037065,0.090328,011101000,1,23,10.1
6101665,2017/06/04 08:00:12,35.6742,20.0112,0.5,22.2,50,-0.018532,0.110402,011101000,1,23,10.1
6101665,2017/06/04 08:30:12,35.6740,20.0135,0.5,22.2,50,-0.012355,0.11542,011101000,1,23,10.1
6101665,2017/06/04 09:00:12,35.6740,20.0157,0.5,22.36,50,0,0.110402,014401000,3,20,10.1
6101665,2017/06/04 09:30:12,35.6734,20.0184,0.5,22.44,50,-0.037065,0.135494,011101000,3,20,9.5
6101665,2017/06/04 10:00:12,35.6735,20.0213,0.5,22.44,50,0.006177,0.145531,011101000,5,20,9.5
6101665,2017/06/04 10:30:40,35.6732,20.0242,0.5,22.6,50,-0.018249,0.143302,011101000,5,20,10.1
6101665,2017/06/04 11:00:12,35.6730,20.0273,0.5,22.76,50,-0.01255,0.158027,011101000,3,20,10.1
6101665,2017/06/04 11:30:12,35.6727,20.0306,0.5,22.84,50,-0.018532,0.165606,011101000,5,20,10.1
6101665,2017/06/04 12:00:12,35.6720,20.0338,0.5,22.92,50,-0.043242,0.160588,014401000,5,20,10.1
6101665,2017/06/04 12:30:12,35.6715,20.0367,0.5,22.92,50,-0.030887,0.145534,011101000,4,20,10.1
6101665,2017/06/04 13:00:12,35.6713,20.0400,0.5,23,50,-0.012355,0.165609,011101000,4,19,10.1
6101665,2017/06/04 13:30:12,35.6710,20.0428,0.5,23.08,50,-0.018532,0.140517,011101000,3,19,10.1
6101665,2017/06/04 14:00:14,35.6706,20.0455,0.5,23.16,50,-0.024683,0.135349,011101000,3,19,10.1
6101665,2017/06/04 14:30:40,35.6702,20.0477,0.5,23,50,-0.024358,0.108835,011101000,4,19,10.1
6101665,2017/06/04 15:00:12,35.6700,20.0501,0.5,23.08,50,-0.01255,0.122348,014401000,5,19,10.1
6101665,2017/06/04 15:30:13,35.6699,20.0523,0.5,22.92,50,-0.006174,0.110346,011101000,5,19,10.1
6101665,2017/06/04 16:00:12,35.6701,20.0546,0.5,22.92,50,0.012362,0.11549,011101000,1,19,10.1
6101665,2017/06/04 16:30:15,35.6705,20.0569,0.5,22.92,50,0.024669,0.115234,011101000,1,19,10.1
6101665,2017/06/04 17:00:41,35.6708,20.0596,0.5,22.84,50,0.018269,0.13357,011101000,1,19,10.1
6101665,2017/06/04 17:30:12,35.6712,20.0622,0.5,22.84,50,0.025115,0.132617,011101000,1,19,10.1
6101665,2017/06/04 18:00:13,35.6712,20.0649,0.5,22.76,50,0,0.135423,014401000,4,19,10.1
6101665,2017/06/04 18:30:13,35.6708,20.0675,0.5,22.76,50,-0.02471,0.13048,011101000,1,19,10.1
6101665,2017/06/04 19:00:13,35.6706,20.0702,0.5,22.68,50,-0.012355,0.135499,011101000,1,19,10.1
6101665,2017/06/04 19:30:13,35.6706,20.0727,0.5,22.68,50,0,0.125462,011101000,3,19,10.1
6101665,2017/06/04 20:00:17,35.6709,20.0752,0.5,22.68,50,0.018491,0.125184,011101000,3,19,10.1
6101665,2017/06/04 20:30:41,35.6713,20.0777,0.5,22.68,50,0.024385,0.123811,011101000,3,19,9.5
6101665,2017/06/04 21:00:13,35.6717,20.0799,0.5,22.68,50,0.0251,0.11215,014401000,1,22,9.5
6101665,2017/06/04 21:30:13,35.6721,20.0821,0.5,22.68,50,0.02471,0.110405,011101000,1,22,10.1
6101665,2017/06/04 22:00:13,35.6723,20.0842,0.5,22.68,50,0.012355,0.105386,011101000,1,22,10.1
6101665,2017/06/04 22:30:13,35.6724,20.0863,0.5,22.68,50,0.006177,0.105386,011101000,1,22,10.1
6101665,2017/06/04 23:00:12,35.6728,20.0879,0.5,22.68,50,0.024724,0.080338,011101000,4,22,10.1
6101665,2017/06/04 23:30:07,35.6739,20.0895,0.5,22.68,50,0.068142,0.080517,011101000,4,22,10.1
6101665,2017/06/05 00:00:07,35.6756,20.0910,0.5,22.52,50,0.105017,0.075273,014401000,5,22,10.1
6101665,2017/06/05 00:30:31,35.6772,20.0925,0.5,22.44,50,0.097539,0.074281,011101000,5,22,10.1
6101665,2017/06/05 01:00:13,35.6786,20.0942,0.5,22.44,50,0.087359,0.086168,011101000,4,22,10.1
6101665,2017/06/05 01:30:13,35.6803,20.0961,0.5,22.44,50,0.105017,0.095341,011101000,4,22,10.1
6101665,2017/06/05 02:00:13,35.6820,20.0981,0.5,22.28,50,0.105017,0.100357,011101000,5,22,10.1
6101665,2017/06/05 02:30:13,35.6834,20.1002,0.5,22.2,50,0.086485,0.105372,011101000,6,22,10.1
6101665,2017/06/05 03:00:12,35.6844,20.1025,0.5,22.28,50,0.061809,0.11547,014401000,4,22,10.1
6101665,2017/06/05 03:30:13,35.6856,20.1050,0.5,22.36,50,0.074089,0.12537,011101000,4,22,10.1
6101665,2017/06/05 04:00:07,35.6863,20.1076,0.5,22.36,50,0.043387,0.130892,011101000,1,22,10.1
6101665,2017/06/05 04:30:41,35.6875,20.1098,0.5,22.44,50,0.072756,0.108338,011101000,1,22,10.1
6101665,2017/06/05 05:00:12,35.6886,20.1125,0.5,22.44,50,0.069065,0.137688,011101000,3,20,10.1
6101665,2017/06/05 05:30:13,35.6894,20.1152,0.5,22.44,50,0.049393,0.135393,011101000,3,20,10.1
6101665,2017/06/05 06:00:13,35.6903,20.1173,0.5,22.44,50,0.055597,0.105363,014401000,1,20,10.1
6101665,2017/06/05 06:30:13,35.6913,20.1193,0.5,22.44,50,0.061775,0.100344,011101000,1,20,10.1
6101665,2017/06/05 07:00:13,35.6925,20.1217,0.5,22.52,50,0.07413,0.120412,011101000,1,20,10.1
6101665,2017/06/05 07:30:14,35.6939,20.1235,0.5,22.6,50,0.086437,0.090257,011101000,4,20,9.5
6101665,2017/06/05 08:00:13,35.6956,20.1251,0.5,22.68,50,0.105076,0.080316,011101000,4,20,9.5
6101665,2017/06/05 08:30:16,35.6972,20.1271,0.5,22.76,50,0.098675,0.10017,011101000,1,20,10.1
6101665,2017/06/05 09:00:41,35.6987,20.1286,0.5,22.84,50,0.091393,0.074221,014401000,1,19,10.1
6101665,2017/06/05 09:30:13,35.7000,20.1308,0.5,22.92,50,0.081576,0.112111,011101000,1,19,10.1
6101665,2017/06/05 10:00:13,35.7016,20.1327,0.5,22.92,50,0.09884,0.095315,011101000,3,19,10.1
6101665,2017/06/05 10:30:13,35.7032,20.1350,0.5,23.08,50,0.09884,0.115379,011101000,3,19,10.1
6101665,2017/06/05 11:00:13,35.7048,20.1370,0.5,23.24,50,0.09884,0.100328,011101000,4,19,10.1
6101665,2017/06/05 11:30:40,35.7067,20.1393,0.5,23.4,50,0.115638,0.113669,011101000,4,19,10.1
6101665,2017/06/05 12:00:13,35.7084,20.1419,0.5,23.64,50,0.106617,0.132406,014401000,4,19,10.1
6101665,2017/06/05 12:30:13,35.7099,20.1441,0.5,23.72,50,0.092662,0.110353,011101000,3,19,10.1
6101665,2017/06/05 13:00:13,35.7115,20.1461,0.5,23.96,50,0.09884,0.100319,011101000,5,19,10.1
6101665,2017/06/05 13:30:13,35.7129,20.1486,0.5,24.04,50,0.086485,0.125397,011101000,6,19,10.1
6101665,2017/06/05 14:00:13,35.7141,20.1508,0.5,24.04,50,0.07413,0.110347,011101000,6,19,10.1
6101665,2017/06/05 14:30:41,35.7155,20.1529,0.5,23.96,50,0.08516,0.103717,011101000,7,19,10.1
6101665,2017/06/05 15:00:13,35.7168,20.1550,0.5,23.8,50,0.081576,0.106992,014401000,7,19,10.1
6101665,2017/06/05 15:30:13,35.7181,20.1564,0.5,23.64,50,0.080307,0.070218,011101000,3,19,10.1
6101665,2017/06/05 16:00:13,35.7196,20.1580,0.5,23.48,50,0.092662,0.080247,011101000,3,19,10.1
6101665,2017/06/05 16:30:13,35.7213,20.1589,0.5,23.4,50,0.105017,0.045138,011101000,1,19,10.1
6101665,2017/06/05 17:00:13,35.7234,20.1602,0.5,23.32,50,0.129727,0.065198,011101000,1,19,10.1
6101665,2017/06/05 17:30:07,35.7257,20.1609,0.5,23.24,50,0.142558,0.035223,011101000,3,19,10.1
6101665,2017/06/05 18:00:31,35.7270,20.1632,0.5,23.24,50,0.079251,0.113827,014401000,3,19,10.1
6101665,2017/06/05 18:30:13,35.7289,20.1647,0.5,23.16,50,0.118558,0.075983,011101000,3,19,9.5
6101665,2017/06/05 19:00:13,35.7306,20.1661,0.5,23.08,50,0.105017,0.070207,011101000,1,19,9.5
6101665,2017/06/05 19:30:13,35.7321,20.1676,0.5,23.08,50,0.092662,0.07522,011101000,1,19,10.1
6101665,2017/06/05 20:00:13,35.7337,20.1694,0.5,23,50,0.09884,0.090262,011101000,3,19,10.1
6101665,2017/06/05 20:30:05,35.7358,20.1712,0.5,23,50,0.130307,0.090663,011101000,3,19,10.1
6101665,2017/06/05 21:00:14,35.7377,20.1728,0.5,22.92,50,0.116788,0.07983,014401000,3,19,10.1
6101665,2017/06/05 21:30:41,35.7400,20.1746,0.5,22.92,50,0.139983,0.088922,011101000,3,19,10.1
6101665,2017/06/05 22:00:13,35.7421,20.1759,0.5,23,50,0.131777,0.066213,011101000,3,19,10.1
6101665,2017/06/05 22:30:13,35.7442,20.1768,0.5,23,50,0.129727,0.045125,011101000,1,19,10.1
6101665,2017/06/05 23:00:13,35.7463,20.1774,0.5,22.92,50,0.129727,0.030083,011101000,3,19,10.1
6101665,2017/06/05 23:30:13,35.7492,20.1787,0.5,22.92,50,0.179147,0.065177,011101000,4,19,10.1
6101665,2017/06/06 00:00:12,35.7522,20.1805,0.5,22.92,50,0.185428,0.090292,014401000,4,19,10.1
6101665,2017/06/06 00:30:15,35.7551,20.1823,0.5,22.84,50,0.178849,0.090089,011101000,1,19,10.1
6101665,2017/06/06 01:00:41,35.7578,20.1850,0.5,22.84,50,0.164417,0.133426,011101000,1,23,10.1
6101665,2017/06/06 01:30:13,35.7606,20.1873,0.5,22.84,50,0.175703,0.117119,011101000,3,23,10.1
6101665,2017/06/06 02:00:13,35.7636,20.1894,0.5,22.76,50,0.185325,0.105267,011101000,3,23,10.1
6101665,2017/06/06 02:30:14,35.7664,20.1909,0.5,22.76,50,0.172874,0.075147,011101000,1,23,10.1
6101665,2017/06/06 03:00:07,35.7698,20.1922,0.5,22.76,50,0.210855,0.065415,014401000,1,23,10.1
6101665,2017/06/06 03:30:41,35.7726,20.1940,0.5,22.76,50,0.169763,0.088546,011101000,1,23,10.1
6101665,2017/06/06 04:00:03,35.7756,20.1958,0.5,22.68,50,0.189322,0.092161,011101000,1,23,10.1
6101665,2017/06/06 04:30:13,35.7786,20.1973,0.5,22.52,50,0.184301,0.074761,011101000,1,23,10.1
6101665,2017/06/06 05:00:13,35.7815,20.1998,0.5,22.44,50,0.179147,0.12529,011101000,1,25,10.1
6101665,2017/06/06 05:30:04,35.7838,20.2020,0.5,22.44,50,0.142796,0.110806,011101000,1,25,9.5
6101665,2017/06/06 06:00:13,35.7861,20.2044,0.5,22.44,50,0.141376,0.119673,014401000,1,25,9.5
6101665,2017/06/06 06:30:41,35.7884,20.2067,0.5,22.44,50,0.139906,0.113491,011101000,1,25,10.1
6101665,2017/06/06 07:00:13,35.7904,20.2093,0.5,22.52,50,0.125502,0.132345,011101000,1,25,10.1
6101665,2017/06/06 07:30:13,35.7922,20.2113,0.5,22.68,50,0.111195,0.100218,011101000,1,25,10.1
6101665,2017/06/06 08:00:13,35.7941,20.2126,0.5,22.6,50,0.117372,0.06514,011101000,1,25,10.1
6101665,2017/06/06 08:30:12,35.7963,20.2140,0.5,22.68,50,0.13598,0.070188,011101000,1,25,10.1
6101665,2017/06/06 09:01:05,35.7987,20.2156,0.5,22.68,50,0.144019,0.077875,014401000,1,25,10.1
6101665,2017/06/06 09:30:13,35.8008,20.2172,0.5,22.68,50,0.133587,0.082551,011101000,1,25,10.1
6101665,2017/06/06 10:00:13,35.7515,20.2188,0.5,22.68,50,-1.47926,0.081366,014401000,1,25,10.1
6101665,2017/06/06 10:30:13,35.8043,20.2206,0.5,22.6,50,3.26172,0.090211,014401000,1,25,10.1
6101665,2017/06/06 11:00:13,35.8060,20.2220,0.5,22.6,50,0.105017,0.07014,011101000,1,25,10.1
6101665,2017/06/06 11:30:12,35.8081,20.2232,0.5,22.68,50,0.1298,0.060152,011101000,3,25,10.1
6101665,2017/06/06 12:00:11,35.8105,20.2238,0.5,22.68,50,0.148342,0.030075,014401000,1,25,10.1
6101665,2017/06/06 12:30:41,35.8131,20.2243,0.5,22.6,50,0.157982,0.024637,011101000,1,25,10.1
6101665,2017/06/06 13:00:03,35.8155,20.2247,0.5,22.6,50,0.151457,0.02047,011101000,4,28,10.1
6101665,2017/06/06 13:30:10,35.8175,20.2255,0.5,22.6,50,0.123071,0.039919,011101000,4,28,10.1
6101665,2017/06/06 14:00:12,35.8195,20.2266,0.5,22.6,50,0.123413,0.05504,011101000,3,28,10.1
6101665,2017/06/06 14:30:06,35.8216,20.2267,0.5,22.6,50,0.130161,0.005026,011101000,4,28,10.1
6101665,2017/06/06 15:00:11,35.8241,20.2266,0.5,22.6,50,0.15401,-0.004995,014401000,4,28,10.1
6101665,2017/06/06 15:30:10,35.8268,20.2270,0.5,22.6,50,0.166885,0.020046,011101000,4,28,10.1
6101665,2017/06/06 16:00:40,35.8294,20.2276,0.5,22.52,50,0.157982,0.029559,011101000,3,28,10.1
6101665,2017/06/06 16:30:09,35.8323,20.2280,0.5,22.6,50,0.182287,0.020385,011101000,3,28,10
6101665,2017/06/06 17:00:12,35.8353,20.2281,0.5,22.52,50,0.185017,0.005,011101000,3,30,10
6101665,2017/06/06 17:30:16,35.8382,20.2283,0.5,22.52,50,0.17875,0.009994,011101000,1,30,10.1
6101665,2017/06/06 18:00:13,35.8415,20.2281,0.5,22.52,50,0.204198,-0.010032,014401000,1,30,10.1
6101665,2017/06/06 18:30:39,35.8436,20.2291,0.5,22.52,50,0.12788,0.049364,011101000,1,30,10.1
6101665,2017/06/06 19:00:12,35.8464,20.2293,0.5,22.44,50,0.175604,0.010168,011101000,1,30,10.1
6101665,2017/06/06 19:30:12,35.8496,20.2299,0.5,22.44,50,0.19768,0.030044,011101000,1,30,10.1
6101665,2017/06/06 21:00:12,35.8596,20.2320,0.5,22.36,50,0.205917,0.035048,014401000,1,36,10.1
6101665,2017/06/06 21:30:22,35.8627,20.2330,0.5,22.28,50,0.190444,0.049788,011101000,1,36,10.1
6101665,2017/06/06 22:00:40,35.8662,20.2337,0.5,22.2,50,0.214072,0.034697,011101000,1,36,10.1
6101665,2017/06/06 22:30:05,35.8696,20.2346,0.5,22.2,50,0.2142,0.045948,011101000,1,36,10.1
6101665,2017/06/06 23:00:11,35.8730,20.2361,0.5,22.12,50,0.211741,0.060559,011101000,1,36,10.1
6101665,2017/06/06 23:30:12,35.8761,20.2381,0.5,22.12,50,0.191396,0.100057,011101000,1,36,10.1